Temperature
23 24 24 24 24 25 25 24 24 24 24 24 24 24 24 23 22 22 22 22 22 21 21 20 19 19 18 18 18 18 18 17 17 16 16 16 16 16 15 15 15 15 15 15
24 24 24 24 24 24 24 24 24 24 24 24 24 24 24 23 22 22 22 22 21 21 21 20 19 19 19 18 18 18 18 17 17 17 16 16 16 15 15 15 15 15 15 15
24 24 24 24 24 24 24 24 24 24 23 23 24 24 24 23 22 21 21 21 21 21 21 20 19 19 19 18 18 18 18 17 17 17 16 16 16 15 15 15 15 15 15 15
24 24 23 24 24 24 24 24 24 23 24 24 23 23 24 24 23 22 21 21 20 20 20 20 19 19 18 18 18 18 17 17 17 16 16 16 16 15 15 15 15 15 15 14
23 23 23 23 24 24 24 23 23 23 23 24 24 24 24 24 23 23 22 21 20 20 19 19 19 18 18 18 18 17 17 17 17 16 16 16 15 15 15 15 15 15 14 14
23 23 23 23 23 23 23 23 23 23 24 23 23 23 23 23 23 23 22 21 20 19 19 18 18 18 18 18 18 17 17 17 17 16 16 16 15 15 15 15 15 15 14 14
23 23 23 23 23 23 23 23 23 23 23 23 23 23 23 23 23 22 22 21 20 19 19 18 18 18 18 18 17 17 17 16 16 16 16 16 15 15 15 15 15 15 14 14
22 22 23 23 23 23 23 24 23 22 23 23 23 23 23 22 22 21 21 20 19 19 18 18 18 17 17 17 17 17 17 16 16 16 16 15 15 15 15 15 15 15 14 14
22 22 23 22 23 23 23 23 24 23 23 23 23 23 23 22 22 21 21 20 19 19 18 18 17 17 17 17 17 17 16 16 16 16 15 15 15 15 15 15 14 14 14 14
22 22 22 22 22 22 23 23 23 23 22 22 22 23 23 22 22 21 21 20 19 19 18 18 17 17 17 17 16 16 16 16 15 15 15 15 15 15 15 14 14 14 14 14
22 22 22 22 22 22 22 22 22 23 23 22 22 23 23 23 22 21 21 20 19 18 18 17 17 17 17 16 16 16 16 15 15 15 15 15 15 15 14 14 14 14 14 14
21 22 22 22 22 21 22 22 22 22 22 22 22 22 23 22 21 21 20 19 18 18 17 16 16 16 16 16 16 16 15 15 15 15 15 15 15 14 14 14 14 14 14 14
21 21 21 21 21 21 21 21 21 22 22 22 22 22 22 21 21 20 19 18 18 17 17 16 16 16 16 16 15 15 15 15 15 15 15 14 14 14 14 14 14 14 14 13
20 21 21 21 22 21 21 20 20 21 21 22 22 22 22 21 20 20 19 18 17 17 16 16 16 15 15 15 15 15 15 15 14 14 14 14 14 14 14 14 13 13 13 13
20 21 21 21 20 20 21 21 20 21 21 22 22 22 22 21 20 19 18 17 17 16 16 16 15 15 15 15 15 15 14 14 14 14 14 14 14 14 14 13 13 13 13 13
19 20 20 20 20 20 20 20 20 20 21 21 21 21 21 20 19 18 18 17 17 16 16 15 15 15 15 14 14 14 14 14 14 14 14 14 13 13 13 13 13 13 13 12
19 19 19 20 19 19 19 20 20 20 20 20 20 21 20 19 18 18 17 16 16 16 15 15 15 14 14 14 14 14 14 13 13 13 13 13 13 13 13 13 12 12 12 12
19 19 19 19 19 18 20 20 19 19 19 20 20 20 19 18 17 16 16 15 15 15 14 14 14 14 14 14 14 13 13 13 13 13 13 13 13 13 13 12 12 12 12 12
18 18 18 19 19 19 19 19 18 19 19 19 19 19 17 16 16 16 15 14 14 14 14 14 14 14 13 13 13 13 13 13 12 13 12 12 12 12 12 12 12 12 12 11
17 18 18 18 18 18 19 19 18 18 19 19 18 18 17 16 18 17 14 14 14 14 14 13 13 13 13 13 13 13 12 12 12 12 12 12 11 11 12 11 11 11 11 11
16 17 17 18 18 19 19 17 17 18 19 18 17 17 16 17 17 15 14 13 13 13 13 13 13 13 12 12 12 12 12 12 12 11 11 11 11 11 11 11 11 11 11 11
18 17 17 17 17 18 17 17 18 18 17 16 16 16 15 15 14 13 13 13 13 13 13 12 12 12 12 12 12 12 11 11 11 11 11 11 11 11 11 11 11 10 10 10
17 18 18 18 18 18 16 17 16 16 16 16 15 14 14 13 13 12 12 12 12 12 12 12 12 11 11 11 11 11 11 11 11 11 11 11 11 10 10 10 10 10 10 9
16 15 16 17 17 16 15 15 14 14 15 14 14 14 13 13 13 12 12 12 12 11 11 11 11 11 11 11 10 10 10 10 10 10 10 10 10 10 10 10 10 9 9 9
15 15 16 17 17 16 15 14 14 14 14 14 13 13 13 13 12 12 12 11 11 11 11 11 11 10 10 10 10 10 10 10 10 9 9 10 10 9 9 9 9 9 9 9
14 15 16 16 16 16 16 14 13 13 13 13 13 12 12 12 12 11 11 11 11 10 10 10 10 10 10 10 10 10 9 9 9 9 9 9 9 9 9 9 9 9 8 8
Wind_Speed
3 5 5 4 5 5 4 4 4 2 1 4 5 4 3 5 6 7 7 7 6 6 5 4 5 6 6 6 5 5 5 4 4 3 2 2 1 1 2 1 2 2 1 2
6 7 5 3 4 6 7 6 4 2 2 4 4 4 3 4 5 6 6 6 6 6 5 5 6 6 7 6 6 5 5 4 4 2 2 1 1 1 1 1 1 1 1 1
8 3 3 6 6 6 7 6 5 3 2 4 4 4 4 4 4 4 4 5 5 5 6 6 7 6 6 6 6 5 5 5 4 4 2 2 2 1 1 1 1 1 1 1
6 4 4 6 6 6 5 4 5 5 5 3 3 3 3 4 4 4 4 5 5 5 5 5 6 7 6 5 5 5 5 5 4 4 3 3 2 2 1 1 1 1 1 1
5 4 5 6 5 6 3 2 4 6 6 5 5 5 1 3 3 3 3 4 5 5 6 6 6 6 5 4 4 4 5 5 5 4 4 3 3 2 1 1 1 1 1 1
5 3 4 4 3 4 4 4 4 5 6 6 4 5 2 1 2 2 3 4 4 5 5 6 5 5 5 5 5 5 5 5 5 5 5 4 3 3 2 2 1 1 1 1
6 6 5 4 5 6 6 5 4 5 5 4 2 4 2 1 1 2 2 2 3 4 5 6 6 6 6 6 5 5 5 5 5 5 5 4 4 4 3 3 2 2 1 2
7 6 6 5 6 6 7 7 5 4 4 3 4 4 1 2 1 1 0 2 3 4 4 5 5 6 6 6 5 5 5 5 4 5 4 4 3 3 2 3 3 3 2 2
5 5 4 3 4 5 7 7 5 6 4 5 4 3 2 2 1 1 2 3 3 3 4 5 5 5 6 6 5 5 4 4 4 4 4 3 3 3 3 3 3 3 3 2
4 5 4 4 4 2 4 5 5 5 4 5 5 6 4 3 2 1 1 2 2 3 3 3 4 5 5 5 5 4 4 4 4 4 4 3 3 3 3 3 3 3 3 3
6 6 5 6 6 6 5 6 6 5 6 5 5 3 1 2 2 2 2 1 2 3 3 3 3 4 4 5 4 4 3 3 3 4 4 4 4 4 3 3 3 4 4 4
5 5 6 6 3 3 6 7 8 7 6 7 6 3 3 2 1 2 2 1 2 3 3 3 3 3 4 4 4 3 3 3 2 3 4 4 4 4 4 4 4 4 4 4
5 5 6 6 6 6 7 7 8 8 7 8 9 4 4 2 1 1 1 1 2 2 3 3 3 3 3 3 3 3 2 2 2 3 3 3 4 4 5 5 4 5 4 4
4 6 8 8 4 5 8 8 8 10 9 10 10 9 4 3 2 2 2 2 2 3 3 2 2 2 2 2 2 2 2 1 1 2 3 3 4 4 5 5 5 5 5 5
4 8 9 8 5 5 8 10 11 13 13 12 11 11 9 5 4 3 3 3 3 3 2 2 1 1 1 1 1 1 1 1 1 2 3 3 3 4 4 4 5 5 5 5
4 6 7 8 6 7 9 11 13 14 13 13 12 11 6 4 3 3 4 4 4 3 2 1 1 0 0 0 1 1 1 1 2 2 2 2 3 3 3 4 4 5 5 5
5 6 7 8 6 7 11 11 12 11 10 11 11 8 4 3 3 3 3 3 3 2 2 1 1 0 1 1 1 1 1 1 2 2 2 2 3 3 3 4 4 5 5 6
7 7 6 6 6 10 4 1 5 8 9 9 8 6 5 4 3 2 2 2 2 2 2 1 0 0 1 1 1 1 1 1 2 2 2 2 3 3 3 4 4 5 5 5
9 8 6 6 8 9 5 3 5 7 8 7 8 6 4 3 4 2 1 2 2 1 1 0 0 1 1 1 1 1 1 1 2 3 3 4 4 4 4 4 5 5 5 5
7 9 8 7 8 8 3 3 3 5 7 4 6 7 6 6 5 3 2 2 1 1 1 1 1 1 1 2 1 1 1 2 3 4 4 4 4 5 5 5 5 5 5 5
8 8 11 11 10 7 1 4 5 6 2 2 4 6 7 6 3 2 4 3 2 2 2 2 2 2 2 2 1 1 2 3 4 4 4 4 4 5 5 5 4 5 4 4
10 9 10 10 10 8 4 6 6 2 2 1 2 4 5 3 3 4 4 3 3 2 2 2 2 2 2 1 1 2 3 4 4 4 4 4 4 4 4 4 4 4 4 4
9 8 7 8 6 1 6 5 2 1 1 1 2 4 5 5 4 4 4 3 3 2 2 1 1 1 1 1 2 3 4 4 4 4 4 4 4 4 4 4 4 4 4 4
7 5 7 8 8 5 4 4 3 3 2 2 3 5 6 5 5 4 4 3 2 1 1 1 1 0 1 2 2 3 3 4 4 5 5 5 4 4 4 4 3 3 4 4
6 7 8 10 7 5 5 5 4 3 2 3 3 4 5 5 5 4 3 3 2 1 1 1 1 1 2 2 3 3 3 4 4 5 5 5 4 5 4 4 4 4 4 4
8 8 9 9 7 6 6 5 5 5 4 4 5 4 4 4 5 4 3 3 2 2 2 2 2 2 2 3 3 3 4 4 4 4 5 5 4 4 4 4 4 4 5 5
Wind_Direction
203 215 217 219 228 248 246 244 247 239 218 237 245 248 209 197 211 218 214 212 207 202 192 178 175 179 181 179 183 174 170 165 154 156 170 164 147 130 110 71 56 75 62 61
207 216 228 228 218 231 240 244 243 226 221 248 253 251 219 202 211 221 222 210 208 200 186 177 175 174 176 175 184 185 178 170 166 166 170 160 139 137 91 86 86 106 106 86
220 211 205 208 212 226 232 242 248 251 223 219 254 235 201 188 200 214 225 220 212 203 193 182 177 172 171 177 183 184 179 173 169 165 163 149 138 170 161 152 115 117 121 117
227 229 212 213 221 232 230 232 244 242 246 232 249 258 197 192 194 202 210 212 213 204 197 188 178 172 175 181 182 186 180 179 170 167 179 185 190 193 203 189 163 171 171 161
211 212 219 221 229 231 236 215 224 239 248 250 234 249 201 159 206 215 214 208 204 201 195 192 190 181 171 169 174 184 180 178 171 179 183 204 208 208 196 183 187 197 179 197
235 220 236 242 229 214 183 185 190 221 236 241 243 242 243 188 267 262 223 205 196 192 192 191 186 178 168 166 167 175 182 181 178 190 198 209 206 206 200 203 207 210 193 209
218 214 209 218 204 186 207 226 223 214 216 229 209 238 244 29 333 295 262 206 188 184 184 183 181 179 172 170 172 173 178 182 186 197 205 212 218 219 212 206 202 218 217 221
219 208 199 208 225 216 214 232 242 250 242 230 205 230 176 68 10 337 232 162 152 164 173 178 179 179 174 170 170 174 178 184 190 203 212 214 213 220 217 218 216 225 232 237
225 209 176 200 225 224 213 224 252 263 260 253 218 210 200 151 111 85 100 128 143 152 161 171 174 176 173 171 172 179 182 187 195 205 206 207 208 215 225 234 230 235 244 249
244 230 196 176 180 191 239 208 219 238 243 244 236 229 220 184 178 150 135 138 137 148 155 161 167 175 174 169 173 178 189 191 194 204 203 212 219 220 235 238 238 246 250 250
239 235 200 193 211 210 189 200 220 235 248 253 251 229 158 199 198 209 201 176 162 158 150 148 158 170 169 165 168 177 184 193 198 208 214 219 221 228 232 242 242 249 251 251
223 241 230 214 198 247 228 225 223 236 237 243 259 252 115 159 197 217 212 181 161 150 147 140 146 154 162 167 173 185 194 203 209 216 220 230 231 235 241 245 245 253 259 262
195 226 229 207 196 195 212 216 227 242 248 244 244 240 130 155 178 205 193 167 157 146 132 132 138 146 158 167 174 179 200 212 220 224 225 230 236 241 246 247 248 253 258 260
223 231 239 245 252 207 215 210 217 228 238 242 244 256 244 243 258 234 189 166 156 149 141 131 133 149 159 169 184 178 194 215 237 230 231 239 248 247 248 251 254 253 255 260
232 244 243 254 259 232 234 228 221 231 244 251 256 256 258 258 249 232 204 179 168 157 147 139 141 144 146 156 202 187 193 222 246 243 241 247 256 256 254 252 254 254 253 254
232 245 243 241 236 236 245 244 237 238 244 248 257 261 262 267 231 209 194 184 182 172 160 142 132 127 177 193 232 227 245 257 247 251 253 254 260 262 262 263 261 257 254 253
217 231 242 245 237 245 249 243 236 232 233 238 246 252 237 226 211 208 201 200 200 189 182 195 201 284 309 280 270 265 254 252 252 262 280 276 272 274 273 268 264 262 258 255
227 230 240 250 236 245 258 180 227 232 237 237 245 247 229 231 206 202 201 198 196 196 198 204 243 336 327 339 323 307 288 260 262 280 297 296 287 277 275 270 266 264 262 258
223 223 230 239 246 255 251 215 211 227 242 238 237 234 216 191 181 187 173 188 191 182 174 165 359 3 14 14 353 332 320 296 288 298 301 299 288 284 280 275 272 271 266 263
208 221 227 231 244 250 246 181 207 233 242 223 223 217 192 182 215 213 162 168 157 136 129 100 82 69 44 22 18 16 347 326 317 310 302 297 293 286 280 279 281 277 270 266
191 207 222 231 241 253 234 150 178 220 254 139 212 207 193 204 241 137 144 146 129 107 104 106 99 74 44 21 10 356 339 331 321 312 306 304 301 292 286 285 285 281 278 277
212 212 217 223 234 239 147 162 196 251 37 160 197 194 194 185 133 130 136 131 122 110 103 105 103 74 50 26 347 332 330 329 324 314 308 307 306 303 295 290 288 284 278 275
226 229 229 224 234 147 166 194 217 285 232 190 179 170 167 161 154 148 144 136 126 116 111 106 111 82 38 15 348 333 334 334 327 321 320 319 315 307 297 288 283 280 275 275
225 232 232 234 235 226 211 220 219 218 217 177 168 164 166 167 164 162 161 158 152 140 132 130 131 315 336 340 332 327 333 332 325 321 320 321 320 314 302 292 283 280 277 277
237 216 229 237 237 235 226 222 215 204 193 165 161 171 172 167 171 173 177 180 183 186 185 197 240 286 306 319 320 326 327 321 316 315 315 316 317 314 305 298 294 282 276 282
228 230 232 240 232 234 233 216 205 197 192 178 167 171 177 176 177 182 189 192 197 207 218 236 262 278 291 308 317 324 320 313 309 308 312 313 313 312 310 303 302 304 283 289
Height
1512 1511 1511 1509 1510 1510 1510 1512 1513 1512 1512 1513 1512 1513 1513 1517 1518 1519 1520 1522 1523 1525 1527 1528 1529 1530 1532 1533 1535 1536 1537 1538 1538 1538 1539 1539 1539 1539 1539 1539 1539 1539 1538 1538
1510 1510 1509 1509 1510 1511 1511 1512 1512 1511 1512 1512 1511 1511 1511 1514 1516 1517 1518 1519 1521 1523 1525 1526 1528 1529 1531 1532 1534 1535 1536 1537 1537 1537 1538 1538 1538 1539 1539 1538 1538 1538 1538 1538
1507 1507 1509 1510 1510 1511 1510 1511 1511 1512 1512 1511 1512 1512 1509 1511 1514 1516 1517 1518 1520 1521 1523 1525 1526 1528 1529 1531 1533 1534 1535 1536 1536 1537 1537 1537 1537 1538 1538 1538 1538 1538 1538 1537
1506 1507 1508 1508 1509 1509 1511 1509 1510 1512 1512 1512 1513 1516 1507 1507 1510 1513 1515 1517 1518 1520 1522 1523 1525 1526 1528 1530 1531 1533 1534 1535 1535 1536 1536 1536 1537 1537 1538 1538 1537 1537 1537 1537
1505 1506 1507 1507 1507 1507 1508 1509 1510 1510 1511 1512 1510 1513 1507 1506 1508 1510 1512 1514 1516 1518 1520 1521 1523 1525 1526 1528 1529 1531 1533 1534 1534 1535 1535 1535 1536 1536 1536 1536 1536 1536 1536 1536
1504 1506 1506 1506 1507 1507 1509 1510 1510 1510 1509 1517 1511 1513 1512 1505 1507 1508 1510 1512 1514 1516 1518 1520 1521 1523 1524 1526 1527 1529 1530 1532 1532 1533 1534 1534 1535 1535 1535 1535 1535 1535 1535 1534
1505 1504 1505 1506 1506 1507 1507 1510 1516 1517 1517 1514 1508 1511 1510 1504 1506 1508 1509 1511 1513 1514 1516 1517 1519 1521 1522 1524 1525 1527 1528 1530 1530 1531 1532 1533 1533 1534 1534 1534 1534 1534 1534 1533
1507 1507 1503 1503 1503 1504 1504 1505 1515 1521 1517 1510 1508 1510 1505 1505 1507 1508 1509 1510 1512 1513 1514 1516 1517 1519 1520 1522 1523 1525 1526 1527 1528 1529 1530 1531 1532 1532 1532 1532 1532 1532 1532 1531
1503 1504 1501 1503 1503 1502 1504 1504 1502 1506 1508 1512 1506 1504 1503 1504 1506 1507 1508 1509 1510 1512 1513 1514 1515 1517 1518 1520 1521 1523 1524 1525 1526 1527 1528 1529 1530 1530 1530 1530 1530 1530 1530 1529
1499 1503 1501 1503 1504 1504 1502 1502 1506 1509 1516 1516 1510 1506 1503 1502 1503 1505 1507 1508 1510 1511 1512 1513 1514 1515 1516 1518 1519 1521 1522 1523 1524 1525 1526 1527 1528 1528 1528 1528 1527 1528 1527 1527
1499 1502 1502 1501 1502 1502 1505 1505 1504 1504 1505 1512 1514 1507 1496 1499 1501 1503 1505 1507 1508 1509 1510 1511 1512 1513 1515 1516 1517 1519 1520 1521 1522 1523 1524 1524 1525 1525 1525 1526 1525 1525 1525 1524
1500 1499 1500 1499 1500 1501 1500 1500 1501 1507 1506 1505 1507 1506 1496 1499 1501 1503 1505 1507 1508 1509 1510 1510 1511 1512 1513 1514 1516 1517 1518 1519 1519 1520 1521 1522 1522 1523 1523 1523 1523 1522 1522 1521
1500 1500 1503 1503 1505 1503 1501 1500 1501 1500 1501 1503 1507 1505 1497 1499 1501 1503 1505 1506 1507 1508 1509 1509 1510 1510 1511 1512 1513 1514 1516 1516 1517 1518 1518 1519 1519 1519 1520 1520 1520 1519 1519 1518
1500 1496 1498 1501 1496 1495 1499 1501 1501 1501 1501 1500 1500 1498 1496 1498 1500 1502 1504 1505 1506 1507 1508 1508 1509 1509 1510 1511 1512 1513 1513 1514 1514 1515 1515 1516 1516 1516 1516 1516 1516 1516 1516 1515
1499 1495 1493 1493 1494 1495 1495 1497 1498 1498 1495 1496 1493 1494 1493 1496 1499 1501 1502 1504 1505 1506 1506 1507 1507 1508 1508 1509 1510 1511 1511 1511 1512 1512 1512 1512 1513 1513 1513 1513 1512 1512 1512 1512
1497 1496 1495 1496 1495 1495 1496 1493 1493 1494 1493 1493 1493 1493 1492 1495 1498 1499 1501 1502 1503 1504 1505 1506 1506 1507 1507 1507 1508 1508 1509 1509 1509 1509 1509 1509 1510 1509 1509 1509 1509 1508 1508 1508
1496 1495 1496 1494 1494 1495 1494 1488 1489 1490 1490 1491 1491 1491 1492 1494 1496 1498 1499 1501 1502 1503 1504 1505 1505 1505 1505 1506 1506 1506 1506 1506 1506 1506 1507 1507 1507 1506 1506 1505 1505 1505 1504 1504
1494 1494 1494 1494 1497 1500 1486 1485 1487 1488 1488 1488 1489 1489 1492 1494 1496 1498 1499 1500 1501 1502 1502 1503 1503 1504 1504 1504 1504 1504 1504 1504 1504 1504 1504 1504 1503 1503 1502 1502 1501 1501 1500 1500
1493 1493 1494 1493 1494 1488 1485 1485 1487 1488 1486 1486 1487 1489 1492 1493 1495 1496 1497 1498 1499 1500 1501 1501 1502 1502 1502 1502 1502 1502 1502 1502 1502 1501 1501 1501 1500 1499 1499 1498 1498 1497 1496 1496
1493 1491 1491 1492 1494 1490 1482 1483 1485 1488 1486 1484 1486 1487 1490 1491 1491 1492 1495 1497 1498 1499 1499 1500 1500 1500 1500 1500 1500 1500 1500 1500 1499 1499 1498 1498 1497 1496 1496 1495 1494 1493 1493 1492
1490 1490 1490 1489 1489 1482 1480 1483 1486 1489 1483 1483 1484 1486 1488 1488 1489 1492 1494 1495 1496 1497 1498 1498 1499 1499 1499 1498 1498 1498 1498 1497 1497 1496 1495 1494 1494 1493 1492 1491 1490 1490 1489 1488
1480 1482 1484 1484 1486 1484 1481 1483 1483 1481 1482 1483 1483 1485 1487 1488 1490 1491 1493 1494 1495 1496 1496 1497 1497 1497 1497 1497 1497 1496 1496 1495 1494 1493 1492 1491 1490 1489 1489 1487 1487 1486 1485 1483
1477 1475 1474 1476 1477 1477 1479 1479 1481 1481 1482 1482 1483 1485 1486 1488 1489 1490 1492 1493 1494 1495 1495 1495 1495 1496 1496 1496 1495 1494 1493 1492 1491 1490 1489 1488 1487 1486 1485 1484 1483 1482 1481 1480
1475 1477 1476 1474 1473 1476 1478 1478 1479 1480 1481 1482 1482 1484 1485 1486 1488 1489 1491 1492 1492 1493 1493 1494 1494 1494 1494 1493 1493 1492 1491 1490 1489 1488 1486 1485 1484 1483 1482 1480 1479 1478 1477 1476
1474 1475 1472 1471 1472 1475 1475 1476 1477 1478 1479 1480 1481 1483 1484 1485 1486 1488 1489 1490 1490 1491 1491 1492 1492 1491 1491 1491 1490 1489 1488 1487 1486 1485 1483 1482 1481 1479 1478 1477 1476 1475 1474 1473
1473 1472 1470 1468 1469 1471 1472 1473 1475 1476 1477 1478 1480 1481 1483 1484 1485 1486 1487 1488 1488 1489 1489 1489 1489 1489 1488 1488 1487 1486 1485 1484 1483 1481 1480 1478 1477 1476 1475 1474 1472 1471 1470 1469